Weather in La Baule

France     47°16′51″N   2°24′14″W
temp.,
°C
wind,
m/s
gust,
m/s
humid.,
%
clouds,
%
prec.,
mm/h
press.,
hPa
HPBL,
m
23 april, fri
fri2323:00+14ene712780 0.0 1020221
02:00+12e916820 0.0 1020420
05:00+11e1015840 0.0 1020415
08:00+10e913800 0.0 1020338
11:00+13e912760 0.0 1020436
14:00+16e811672 0.0 1020139
17:00+17e710640 0.0 101976
20:00+16e7116812 0.0 1019100
24 april, sat
sat2423:00+14ene9167496 0.0 1019258
02:00+12e91574100 0.0 1019319
05:00+11e9137699 0.0 1018268
08:00+10e8117734 0.0 1018231
11:00+13e79735 0.0 1018254
14:00+16e67675 0.0 101851
17:00+17e6665100 0.0 101739
20:00+17ene6871100 0.0 101757
25 april, sun
sun2523:00+15ene81373100 0.0 1018215
02:00+13ene9157241 0.0 1018311
05:00+11ene10167541 0.0 1017388
08:00+10ene101675100 0.0 1018407
11:00+12ene111572100 0.0 1017475
14:00+15ene101363100 0.0 1016266
17:00+16ene101362100 0.0 1015216
20:00+15ene91365100 0.0 1015260
26 april, mon
mon2623:00+14ene101565100 0.0 1015464
02:00+12ne101567100 0.0 1014511
05:00+11ne101566100 0.0 1012455
08:00+10ne101469100 0.1 1012408
11:00+11ne91366100 0.3 1011457
14:00+15ene796595 0.3 1010165
17:00+16ne7963100 0.0 100896
20:00+16nne7968100 0.0 1008105
27 april, tue
tue2723:00+11nne1013770 0.0 1009364
02:00+9nne81180100 0.0 1009296
05:00+9nne81176100 0.0 1008317
08:00+8nne81269100 0.0 1008422
11:00+11nne78580 0.0 1008708
14:00+13nnw57584 0.0 1007982
17:00+13wnw887199 0.2 1007529
20:00+13n7766100 0.7 1007902